Location: Soapstone Prairie Natural Area
(40.9437°N, 105.0829°W)
Time: 09:21:50
(UTC-06:00)

ISS - Visible Passes

Search period start: 23 October 2017 00:00
Search period end: 02 November 2017 00:00
Orbit: 400 x 408 km, 51.6° (Epoch: 24 October)

Date Brightness Start Highest point End Pass type
(mag) Time Alt. Az. Time Alt. Az. Time Alt. Az.
26 Oct -0.4 06:55:34 10° SSE 06:56:46 12° SE 06:57:58 10° ESE visible
28 Oct -1.6 06:45:21 10° SSW 06:48:09 27° SE 06:50:59 10° ENE visible
29 Oct -0.8 05:54:03 10° SSE 05:55:56 15° SE 05:57:49 10° E visible
30 Oct -3.6 06:36:25 10° SW 06:39:38 70° SE 06:42:53 10° ENE visible
31 Oct -2.4 05:46:07 25° S 05:47:17 34° SE 05:50:17 10° ENE visible
01 Nov -0.6 04:56:31 14° E 04:56:31 14° E 04:57:18 10° E visible
01 Nov -3.6 06:29:12 20° WSW 06:31:13 50° NNW 06:34:24 10° NE visible
